Vertical_Velocity
-1 0 -0 1 -1 -0 0 0 1 1 1 2 1 0 0 -0 0 -0 0 0 -0 0 0 0 0 0 1 1 0 1 -0 -1 -1 -0 1 1 1 -1 0 -0 -0 1 0
-0 -1 -1 0 -0 0 2 -1 1 1 1 -1 -1 -1 1 0 -1 -1 -1 -1 -1 0 -0 -0 0 0 -0 -1 -0 -1 0 0 0 -1 -1 1 1 1 1 1 0 -1 -1
-1 -1 -1 -0 1 0 -1 1 0 -1 -1 -1 -0 -0 -1 -2 -1 -0 -1 -1 -1 -1 -1 -0 -1 -1 -1 -1 -1 -1 -0 1 -2 -0 -2 -1 -0 -0 -1 -0 -0 1 -0
-1 -2 -1 -0 1 -0 -1 -0 -1 -0 -1 -1 -1 -1 -0 -1 -1 -0 -1 -1 -1 -1 -1 -1 -1 0 0 0 0 0 0 0 1 -1 -1 -0 -1 0 -0 -0 1 -1 -0
-0 -1 -1 -1 0 0 -1 -1 -0 -1 -1 -0 -1 -0 -0 -0 -0 0 -0 -1 -1 -1 -2 -2 -2 -2 -1 -0 -0 -0 0 0 0 0 -1 -0 -1 0 -0 -1 -1 0 1
-0 -0 -2 -1 -0 -0 0 -2 -1 -1 -0 -0 -1 -1 -0 0 -0 -1 0 -0 -1 -0 0 -0 -1 -1 -1 -1 -1 -0 1 0 -1 -0 0 1 -1 -1 -1 -2 -2 -1 -0
-2 0 -1 -2 -1 -1 -0 1 -1 -0 -1 -1 0 0 -0 -0 -0 -0 -0 -0 -0 -1 -0 -1 -1 -1 -0 -0 -0 -0 0 1 -1 -0 -0 -1 -0 -0 -1 -1 -1 0 0
-1 -1 -1 -1 -1 -1 -0 -0 1 2 1 -1 -1 -0 0 0 -0 -1 -0 -0 -0 -1 -0 -0 -0 -1 -1 -0 -0 -1 -1 1 -3 1 -1 -2 -1 -1 -0 -0 -1 -2 -1
-2 -1 -1 -1 -1 -2 -0 -0 -0 1 1 3 -0 -2 -2 -1 -0 -0 -0 -0 -0 -1 -1 -1 -1 -1 -1 -0 0 -0 -1 -1 -2 0 -1 -3 -0 -1 -1 -0 -1 -0 -1
-1 -0 0 -1 -1 -2 -1 0 -1 -1 -0 -1 1 1 -0 -1 -1 -1 -1 -1 -0 -1 -1 -1 -1 -2 0 -1 -1 -1 -1 -0 -3 1 0 -1 -3 0 -0 -1 -0 -0 -1
0 -3 0 -0 -1 -1 -1 -0 -1 -1 -1 -0 -1 0 0 -1 0 -1 -2 -0 -0 -0 -1 -0 -1 -0 -1 -1 -0 0 -1 0 -4 1 1 -1 -0 -3 -1 -1 -1 -1 -1
0 -3 -1 -0 -1 -1 -1 -1 -1 -1 -1 -0 -1 1 -1 1 -1 -0 -1 -0 -1 -1 -0 -1 -1 -1 -0 -1 -0 1 0 1 -1 -3 -1 1 2 -1 -1 -2 0 -2 -2
0 0 -2 -1 -0 0 -2 2 -0 0 0 -0 -0 -2 -0 -1 -0 -1 -1 -0 -1 -2 -1 -2 -0 -1 -1 -0 -0 -1 1 1 1 -1 -0 -1 0 1 -1 0 -0 -1 -2
-4 -1 1 1 0 -1 -0 -4 -1 1 0 -1 -2 -2 -2 0 -1 -3 -3 -0 -1 -2 -2 -2 -1 -1 -2 -3 -0 -1 1 0 0 -2 0 0 -1 -1 -0 1 1 1 -0
-0 -1 -2 1 0 -0 -2 1 -0 -1 -0 -2 -2 -0 -1 0 0 0 -1 0 -0 -1 -1 -0 -1 -2 -2 0 -1 -0 -3 1 2 1 -3 -2 -1 1 0 -3 -1 1 1
-3 0 -1 -1 -2 -0 0 -1 1 -0 -1 1 -1 -2 -2 -1 -1 -0 -2 -1 -1 -1 1 -0 -0 -1 -1 -0 -0 -1 -2 -2 5 1 -0 -2 -1 -1 -1 -1 -3 -1 0
2 -5 -2 1 0 -1 -1 0 -2 0 3 -1 2 1 -0 -1 1 2 4 0 -1 -0 -1 -0 -1 0 -0 -1 -0 0 1 -3 5 0 1 -2 -2 0 -1 1 -1 -1 -1
-1 3 -1 -4 -1 -1 -0 -0 1 -0 1 -0 -1 -0 -2 -2 -1 -2 -2 4 0 0 1 -1 1 0 1 -1 -1 -3 1 0 -6 8 1 -0 -1 0 -0 -1 0 -0 0
-1 1 3 1 -3 -3 2 2 -2 -2 1 -1 -0 -1 0 -2 -4 -0 -0 1 -0 -1 -1 -1 1 -1 -1 0 -1 -0 -1 -1 -1 -4 4 2 1 -3 -1 -1 -1 1 -0
2 -1 -2 6 10 1 -5 -3 -1 -1 -0 -1 2 1 1 3 2 -1 -3 -3 1 0 2 -2 -1 -1 1 -1 -1 2 1 3 -3 -1 1 6 2 2 -2 0 -2 1 -1
0 3 1 -3 -3 3 5 6 -2 -2 -7 -0 -4 -5 -0 1 1 -0 3 0 -7 -1 0 1 0 1 3 -1 -5 3 -2 3 3 -1 -4 -0 6 3 1 -1 -3 -1 0
-1 -1 -1 1 -1 -3 -6 -7 0 1 2 -0 -4 -3 -7 -9 -2 1 1 3 0 -6 0 3 5 1 5 5 0 -4 -0 -2 7 -1 -2 -1 -2 5 7 1 2 -3 1
-3 -1 -0 -0 -0 -1 -2 -0 -3 -5 -1 3 2 2 3 -4 -7 -2 1 3 3 1 -3 -2 0 0 3 6 4 -1 -4 3 3 3 4 1 -0 -6 3 2 3 7 -2
-2 -1 0 0 -1 -2 -3 -1 -1 -2 -5 -4 3 3 1 -1 -3 -7 -10 -2 2 3 3 1 -0 0 -2 8 -5 9 2 -4 1 1 5 1 -0 0 -3 1 -1 1 -1
-0 0 -0 -1 0 1 -1 -1 -0 -0 -3 -3 -7 2 6 3 1 2 -4 -8 -5 -2 3 3 2 -3 -0 0 8 2 2 5 -3 -3 -2 7 -2 -1 -2 -0 3 0 6
-2 -1 0 2 -2 -1 -1 -1 -1 1 -1 -0 -1 -3 -4 3 6 3 1 1 -4 -3 -2 0 -0 2 2 -3 -2 5 5 2 2 -4 -1 -0 4 6 -0 -0 9 26 -1
Height
5894 5896 5897 5899 5899 5900 5901 5901 5902 5903 5902 5903 5903 5903 5904 5904 5903 5903 5902 5902 5902 5901 5900 5900 5899 5899 5898 5897 5897 5896 5896 5895 5894 5894 5893 5892 5891 5889 5889 5887 5886 5885 5884
5892 5893 5895 5897 5898 5899 5899 5899 5900 5900 5901 5902 5902 5902 5902 5902 5902 5902 5901 5901 5900 5900 5899 5898 5897 5897 5896 5895 5894 5894 5894 5893 5892 5891 5890 5889 5888 5887 5886 5885 5884 5884 5882
5890 5892 5894 5895 5896 5897 5898 5899 5899 5899 5900 5901 5901 5901 5901 5901 5901 5900 5900 5899 5899 5898 5897 5896 5895 5894 5894 5893 5892 5891 5891 5890 5889 5888 5887 5886 5885 5885 5884 5883 5882 5881 5880
5888 5890 5892 5893 5894 5895 5896 5897 5898 5898 5899 5899 5899 5899 5899 5899 5899 5899 5898 5897 5896 5895 5895 5894 5893 5892 5891 5890 5889 5889 5888 5887 5886 5885 5884 5884 5882 5882 5881 5880 5879 5878 5877
5886 5888 5890 5891 5893 5894 5895 5895 5896 5897 5897 5897 5897 5897 5897 5897 5896 5896 5895 5894 5893 5893 5892 5891 5890 5889 5888 5887 5886 5886 5885 5885 5883 5883 5881 5880 5879 5878 5878 5876 5875 5875 5874
5883 5886 5888 5889 5891 5892 5894 5894 5894 5895 5895 5895 5895 5895 5895 5894 5893 5893 5892 5892 5891 5890 5890 5889 5887 5887 5886 5885 5883 5883 5882 5881 5879 5879 5878 5877 5876 5876 5875 5874 5873 5872 5871
5881 5883 5885 5887 5888 5890 5892 5892 5893 5893 5893 5893 5893 5892 5892 5891 5890 5890 5890 5889 5889 5888 5887 5886 5885 5884 5883 5882 5881 5879 5878 5877 5876 5876 5875 5874 5874 5873 5872 5870 5869 5869 5867
5879 5880 5882 5884 5885 5887 5889 5890 5891 5892 5892 5890 5889 5889 5889 5888 5888 5888 5887 5887 5886 5885 5884 5883 5882 5881 5879 5878 5877 5876 5875 5874 5873 5873 5872 5870 5870 5869 5868 5867 5866 5865 5864
5875 5877 5880 5881 5882 5884 5886 5887 5887 5887 5888 5888 5887 5886 5886 5886 5885 5884 5884 5883 5883 5881 5880 5880 5879 5878 5876 5874 5873 5873 5872 5872 5870 5870 5869 5867 5866 5865 5864 5863 5861 5861 5860
5871 5874 5876 5877 5879 5880 5881 5883 5883 5884 5884 5884 5883 5883 5883 5882 5881 5881 5880 5880 5879 5877 5877 5876 5875 5873 5872 5871 5870 5869 5868 5868 5866 5866 5864 5863 5861 5859 5859 5858 5858 5857 5856
5868 5870 5872 5873 5875 5876 5876 5877 5878 5879 5880 5880 5880 5880 5880 5879 5879 5878 5877 5876 5875 5873 5872 5872 5871 5870 5869 5868 5866 5866 5865 5864 5863 5860 5860 5859 5857 5855 5854 5853 5853 5852 5851
5865 5866 5869 5870 5871 5872 5873 5873 5874 5875 5876 5876 5876 5876 5876 5877 5876 5875 5874 5872 5871 5870 5869 5868 5868 5867 5865 5864 5863 5862 5861 5859 5858 5855 5854 5853 5853 5852 5850 5849 5848 5847 5846
5862 5862 5864 5865 5867 5869 5868 5869 5871 5871 5872 5872 5871 5870 5872 5872 5871 5870 5869 5869 5868 5866 5865 5864 5863 5862 5861 5860 5859 5858 5856 5855 5854 5851 5849 5848 5847 5847 5846 5845 5844 5843 5842
5855 5858 5860 5862 5863 5864 5864 5864 5866 5867 5868 5867 5867 5867 5866 5867 5867 5865 5864 5864 5863 5862 5861 5859 5859 5858 5856 5855 5853 5853 5851 5850 5850 5848 5845 5844 5843 5842 5841 5840 5840 5838 5837
5850 5853 5854 5857 5858 5859 5860 5861 5862 5862 5862 5862 5862 5862 5861 5862 5862 5862 5861 5859 5858 5856 5855 5854 5853 5853 5851 5850 5849 5848 5846 5845 5844 5844 5842 5839 5838 5838 5837 5836 5834 5833 5832
5842 5846 5848 5850 5851 5853 5855 5856 5858 5857 5857 5857 5857 5857 5856 5857 5856 5855 5855 5853 5852 5850 5849 5849 5848 5846 5845 5844 5843 5841 5840 5839 5838 5837 5836 5834 5833 5832 5831 5831 5829 5828 5827
5837 5838 5841 5844 5845 5847 5850 5850 5850 5851 5853 5852 5852 5852 5851 5850 5849 5849 5849 5848 5847 5845 5843 5843 5842 5840 5839 5837 5836 5835 5833 5832 5832 5830 5830 5829 5827 5826 5825 5824 5824 5822 5821
5831 5834 5836 5835 5838 5841 5843 5843 5844 5844 5846 5846 5844 5844 5844 5843 5842 5842 5841 5841 5839 5838 5838 5837 5835 5833 5831 5830 5829 5827 5826 5825 5824 5823 5823 5822 5820 5819 5818 5817 5817 5816 5815
5823 5828 5831 5832 5832 5834 5835 5836 5837 5837 5839 5838 5838 5838 5837 5836 5835 5834 5834 5832 5831 5830 5829 5827 5826 5824 5823 5821 5819 5818 5816 5817 5815 5815 5816 5815 5814 5812 5810 5810 5809 5809 5808
5819 5822 5824 5827 5829 5828 5827 5829 5831 5830 5831 5831 5831 5831 5830 5830 5829 5827 5826 5824 5822 5821 5820 5818 5816 5815 5813 5811 5809 5807 5806 5805 5805 5804 5805 5806 5804 5804 5802 5801 5800 5800 5799
5814 5816 5816 5817 5820 5823 5825 5825 5825 5825 5823 5823 5822 5821 5821 5820 5820 5820 5819 5817 5814 5812 5810 5808 5807 5805 5803 5800 5799 5797 5795 5794 5794 5793 5793 5793 5794 5793 5793 5792 5791 5791 5790
5805 5807 5809 5811 5811 5812 5814 5815 5817 5818 5819 5817 5816 5814 5812 5810 5809 5809 5808 5807 5804 5801 5801 5800 5798 5796 5794 5790 5788 5785 5785 5784 5785 5782 5781 5781 5781 5781 5781 5780 5780 5780 5780
5797 5799 5801 5803 5804 5805 5806 5807 5807 5806 5808 5810 5810 5808 5806 5802 5800 5798 5798 5796 5794 5792 5790 5788 5787 5785 5782 5779 5778 5775 5772 5773 5771 5770 5769 5769 5769 5769 5769 5769 5768 5768 5767
5788 5791 5793 5795 5796 5796 5797 5798 5798 5798 5798 5797 5798 5799 5798 5794 5791 5789 5786 5785 5784 5782 5779 5776 5774 5774 5771 5769 5765 5764 5760 5759 5758 5757 5757 5757 5756 5755 5755 5756 5757 5757 5756
5780 5782 5783 5785 5787 5788 5788 5789 5789 5790 5789 5788 5787 5787 5786 5785 5782 5779 5776 5773 5772 5771 5769 5767 5763 5759 5758 5756 5753 5750 5748 5745 5743 5742 5742 5742 5741 5742 5742 5742 5744 5744 5745
5772 5774 5775 5777 5778 5779 5779 5780 5780 5780 5779 5779 5777 5777 5776 5775 5773 5770 5767 5764 5761 5759 5758 5755 5752 5749 5745 5742 5739 5736 5733 5729 5727 5726 5726 5726 5725 5726 5727 5729 5729 5730 5731